GFSSW_925_spd_096.txt.gz
Wind_Speed
12 12 13 13 14 14 16 17 19 21 21 21 21 22 22 24 14 7 5 4 7 11 14 12 6 9 10 4 9 6 5 11 17 17 18 18 9 10 9 9 4 3 7 22 34
12 12 12 13 14 16 18 20 23 24 23 23 23 21 20 18 13 7 3 6 8 11 12 11 7 2 4 6 5 7 8 14 13 14 15 18 15 9 5 24 6 5 14 32 32
12 12 13 13 13 16 18 21 24 26 26 23 23 21 18 12 6 6 5 7 10 11 9 8 9 6 8 8 9 9 17 13 16 17 16 18 18 3 6 6 4 10 14 21 23
11 12 11 11 13 16 19 23 25 27 24 21 19 19 12 3 4 3 6 8 12 11 12 7 6 4 4 6 11 16 17 16 16 17 18 18 17 16 18 14 4 8 16 18 16
11 10 10 11 13 17 20 24 26 26 21 18 18 15 6 4 6 5 7 9 13 10 9 7 9 4 7 7 8 14 12 16 16 14 14 14 17 15 13 11 9 7 2 17 15
11 12 12 13 15 17 21 25 25 23 18 15 15 8 5 2 2 3 7 10 8 9 10 7 7 10 8 9 10 10 15 14 11 14 15 16 14 16 15 9 6 6 8 12 15
12 13 13 14 15 18 21 24 25 19 15 14 9 3 6 4 2 6 9 9 8 7 8 10 8 8 10 10 11 9 14 12 12 12 14 12 18 23 16 16 11 12 11 7 16
13 13 13 14 16 18 22 23 25 14 11 11 6 2 6 2 4 6 7 10 5 6 8 10 9 11 9 10 13 14 15 13 7 16 18 12 26 18 11 15 17 14 12 12 15
14 14 14 15 16 19 21 21 20 14 9 3 4 5 1 3 5 9 5 9 10 10 6 10 6 7 8 10 9 10 11 14 13 13 10 19 23 13 14 15 18 10 12 12 10
15 15 16 16 17 20 22 17 16 9 6 5 7 4 4 11 18 12 6 5 5 10 12 7 7 7 9 9 9 13 15 16 15 13 11 13 20 15 11 16 14 12 16 12 12
16 16 16 17 17 15 21 8 6 2 5 7 9 6 9 18 10 5 4 7 10 12 10 8 8 9 16 16 15 15 14 17 18 18 18 17 15 15 15 11 13 13 12 13 13
18 18 17 17 14 13 10 5 6 5 9 9 7 6 12 2 7 6 2 6 12 11 13 9 12 12 14 14 12 16 18 16 15 16 15 17 19 16 12 13 12 7 6 10 8
18 18 18 16 6 8 9 7 5 6 5 2 5 6 3 2 6 9 3 11 11 10 15 11 12 10 16 14 14 15 16 15 17 14 17 14 18 17 13 14 13 10 9 8 12
18 19 19 17 2 10 3 8 7 2 3 6 3 2 4 5 4 2 4 3 7 13 11 8 8 13 12 14 14 12 17 14 11 15 8 13 12 15 16 16 16 13 9 6 9
18 20 17 11 5 6 5 10 7 3 3 3 4 0 7 5 9 3 5 5 12 12 11 11 12 9 11 13 15 15 4 9 16 14 11 15 9 12 13 17 17 13 11 11 8
18 20 15 3 4 3 8 9 4 4 1 4 1 7 12 8 9 5 11 6 8 12 12 11 1 4 7 13 15 12 6 8 10 5 9 12 3 6 9 16 15 9 10 10 12
18 17 10 5 6 10 10 6 4 4 0 5 7 11 12 7 12 11 14 7 9 11 13 11 9 11 6 14 5 6 1 4 3 1 5 8 5 11 18 19 3 18 13 13 13
18 11 7 3 7 8 7 4 4 7 9 10 11 16 12 3 7 12 16 7 11 13 12 11 9 12 9 10 7 13 4 2 4 2 3 5 5 4 18 16 14 18 13 15 10
16 5 2 3 4 5 5 4 6 8 8 10 13 8 9 11 10 12 13 7 8 14 10 9 6 14 6 5 3 7 4 6 3 4 3 4 5 9 17 3 9 15 9 9 9
15 10 3 4 1 3 3 7 5 7 7 7 6 6 11 13 9 12 10 9 7 12 11 4 8 11 6 6 4 3 8 3 1 4 5 5 12 7 7 7 10 12 10 9 10
5 3 2 1 2 3 4 4 4 7 5 6 8 10 12 12 12 11 6 7 8 13 13 11 5 11 8 3 7 1 3 2 2 5 3 3 6 9 8 8 11 11 9 8 8
5 3 4 1 3 3 3 3 2 5 6 5 4 7 7 9 9 11 8 6 7 10 10 7 4 7 7 5 1 6 5 4 2 4 4 3 5 8 9 12 12 10 8 7 7
3 3 3 4 3 5 2 2 5 4 5 4 6 4 5 7 5 7 8 5 4 7 7 6 5 7 8 2 2 5 9 7 6 4 10 3 4 4 9 10 9 9 8 7 8
3 2 3 4 2 4 7 7 3 5 5 6 9 8 9 8 8 6 11 4 8 6 3 1 5 9 9 12 10 8 8 6 4 1 2 0 5 9 9 9 9 8 8 7 7
3 3 2 1 2 3 6 8 10 7 4 4 5 5 5 5 12 11 14 15 10 4 3 5 6 11 14 18 6 7 7 7 4 4 3 6 7 7 6 4 9 9 9 8 7
2 2 1 3 4 7 3 6 8 7 8 7 7 9 8 10 12 15 13 10 7 5 10 7 6 13 15 14 5 7 6 7 5 6 2 5 7 6 6 7 8 9 8 8 8
5 2 0 2 4 5 7 5 6 4 6 5 5 6 9 10 10 13 12 12 13 14 12 4 4 6 5 14 11 3 5 6 4 7 6 3 4 5 7 8 7 7 7 8 8

GFSSW_925_spd_102.txt.gz
Wind_Speed
10 10 9 10 9 12 15 17 20 22 23 21 20 20 18 12 7 5 2 5 8 13 10 11 11 5 1 2 2 2 2 4 4 2 3 3 2 3 2 1 2 5 4 5 21
10 10 8 9 10 12 15 18 20 22 23 21 20 19 13 9 3 4 4 7 10 12 13 12 7 10 2 2 3 2 3 4 3 5 5 7 3 3 2 1 3 4 4 14 24
11 10 9 9 11 13 16 19 21 22 23 19 17 17 8 4 2 2 6 8 9 12 14 13 9 2 2 1 3 3 6 2 4 8 9 13 10 5 6 4 8 10 9 8 14
11 11 11 11 12 14 17 19 22 22 23 16 15 14 5 3 3 4 7 9 9 12 11 10 4 5 2 3 3 5 8 7 5 8 9 12 7 4 8 7 9 8 9 15 16
11 12 13 13 14 15 17 19 21 22 20 13 14 9 3 2 3 5 7 9 7 11 9 6 6 4 3 5 7 4 3 7 6 8 6 7 6 5 7 5 5 5 12 18 18
13 13 14 15 16 16 18 20 21 20 17 11 10 4 3 3 5 5 7 8 6 6 6 4 2 4 3 4 1 5 8 8 5 8 5 6 7 2 4 7 6 7 9 13 17
14 14 15 16 17 18 19 20 20 19 12 9 6 3 2 4 3 5 7 8 9 5 2 2 2 2 3 5 3 7 6 7 7 5 4 3 14 3 7 12 13 13 11 15 20
14 16 17 18 19 20 19 20 22 12 6 1 3 2 3 3 5 8 4 6 6 5 6 5 2 2 2 5 6 4 3 4 7 5 4 6 6 10 9 6 10 10 13 17 19
16 16 18 19 20 19 21 23 10 3 1 1 2 2 3 5 5 8 5 5 8 4 6 7 0 1 5 2 4 3 5 6 6 4 4 5 4 7 9 7 10 10 11 15 19
17 17 19 19 18 19 22 11 7 5 5 1 1 2 2 4 10 7 4 5 3 4 5 2 3 3 3 2 4 6 7 7 7 4 4 10 7 7 9 6 10 10 9 14 19
16 18 20 19 13 17 21 4 8 4 7 1 4 3 4 11 5 3 4 2 1 2 1 1 2 5 9 6 5 6 5 9 9 7 7 11 10 8 9 6 9 9 9 10 16
17 19 20 18 10 14 19 7 2 1 5 5 6 5 10 3 4 4 3 1 3 4 4 5 3 7 7 8 6 7 7 11 8 5 7 9 16 7 7 8 8 9 8 12 6
18 20 20 17 3 9 18 8 2 1 0 6 5 3 4 3 4 6 7 1 2 4 7 3 5 6 3 5 7 5 7 6 11 5 5 5 15 5 6 6 6 9 7 11 9
17 20 19 14 2 7 4 8 3 1 4 2 2 3 1 2 4 6 4 3 3 4 6 5 3 4 4 5 4 8 6 12 14 7 6 2 11 4 6 9 5 8 9 8 7
16 19 15 11 5 3 7 9 2 2 4 2 2 2 1 2 5 5 4 4 2 5 5 7 4 4 3 5 3 10 12 8 12 13 4 5 3 6 4 5 7 9 9 9 9
14 16 13 7 4 3 11 7 1 4 3 4 2 5 7 2 3 5 6 5 1 5 2 6 4 2 3 7 8 13 6 13 3 1 3 7 4 5 4 8 11 13 10 9 6
13 14 9 5 4 10 9 1 4 5 4 6 4 6 4 3 6 6 3 7 3 6 8 7 6 5 2 8 5 5 6 4 5 4 3 11 5 5 7 10 7 13 10 7 8
14 12 5 4 7 8 3 4 7 2 3 3 4 8 3 7 5 8 3 3 6 4 2 4 9 2 4 4 5 4 3 1 3 5 5 5 3 5 13 8 7 11 10 12 13
14 6 4 2 5 7 4 5 4 2 2 4 8 4 5 6 4 8 6 2 1 2 1 4 6 6 5 5 1 3 4 2 1 3 4 2 2 3 4 9 10 13 14 11 10
12 7 3 1 5 3 4 2 3 0 2 1 1 3 3 5 6 6 3 2 3 1 2 2 6 3 8 5 4 1 6 1 2 5 5 6 4 5 4 4 7 5 7 10 6
5 3 1 1 3 4 3 4 2 1 0 0 1 3 3 2 3 3 2 1 2 5 3 1 2 8 4 3 5 3 3 1 4 1 3 4 4 6 4 0 1 6 7 6 6
1 1 4 0 3 1 1 3 2 2 2 2 1 4 3 4 4 3 2 2 7 2 4 1 2 5 7 8 7 4 3 3 3 6 0 1 4 5 5 6 6 7 8 4 3
2 2 2 1 2 1 3 2 4 2 1 1 1 2 2 2 2 2 4 3 8 6 2 1 1 5 10 6 6 4 6 3 3 3 3 2 3 3 6 6 7 7 7 7 9
2 0 2 3 0 5 3 2 1 2 2 3 3 2 2 2 3 4 4 3 8 5 5 3 2 6 5 9 3 7 13 10 3 2 2 3 3 4 4 3 3 5 6 6 6
2 5 3 3 4 4 5 2 1 2 2 4 1 4 3 2 4 4 2 6 4 5 3 3 3 4 8 15 10 13 11 5 4 3 3 3 1 5 4 6 4 4 5 6 6
5 4 2 2 2 7 6 6 7 3 4 3 3 2 4 4 6 5 2 3 6 4 3 5 4 5 6 3 4 3 3 3 3 3 3 3 3 4 4 5 4 7 7 6 6
9 3 4 2 3 5 5 6 6 7 3 4 3 2 3 6 6 9 9 8 9 4 2 2 2 3 5 6 8 2 3 1 2 1 2 2 2 2 5 5 2 3 7 8 8

GFSSW_925_spd_108.txt.gz
Wind_Speed
9 9 8 8 9 11 13 15 16 19 20 17 14 11 5 4 8 9 5 5 7 13 13 10 7 7 2 2 2 2 1 2 2 2 3 2 5 2 2 3 2 4 3 4 24
8 8 8 9 10 12 13 14 15 17 19 17 12 9 5 2 4 5 7 7 10 12 11 10 6 7 3 3 3 3 3 5 4 2 4 6 3 4 3 4 4 2 5 17 24
8 9 10 11 11 12 13 13 14 16 16 15 12 8 6 1 3 3 8 8 9 10 8 5 3 2 3 3 4 2 3 3 4 5 5 5 6 4 4 5 8 6 7 12 17
11 11 11 11 12 12 13 13 14 15 14 12 11 6 4 3 4 5 7 7 7 8 7 6 5 4 3 3 3 2 6 4 4 3 3 5 4 4 8 9 10 9 10 14 16
11 12 12 12 13 13 13 13 13 13 13 10 8 5 2 5 0 5 6 7 6 8 7 3 4 2 3 3 5 3 3 5 7 9 6 6 8 7 8 9 11 4 10 17 16
11 12 13 14 15 15 14 13 14 14 12 7 5 3 3 3 4 6 7 7 6 5 3 3 1 1 1 1 0 3 5 8 7 7 5 4 7 2 5 6 9 6 9 13 16
13 13 15 16 17 16 15 16 15 12 4 2 3 1 1 3 5 8 8 7 8 5 2 2 1 3 1 4 2 3 4 7 1 4 6 3 6 5 6 5 6 7 3 7 11
14 15 17 17 16 15 16 17 6 1 1 3 4 1 3 3 8 9 6 5 6 5 3 3 0 1 1 4 5 4 3 4 7 5 4 0 7 12 7 6 11 7 6 7 10
14 17 18 17 14 16 18 6 3 5 3 2 2 2 4 6 5 8 4 4 10 2 3 1 2 2 4 3 4 5 4 4 7 4 4 3 7 8 10 7 8 9 7 5 8
16 19 19 17 13 16 11 6 7 4 4 3 3 3 5 4 7 9 4 3 2 5 3 6 4 3 3 4 3 6 5 4 6 5 0 9 11 12 12 7 8 9 8 8 7
16 19 19 15 13 15 5 1 5 3 8 2 1 2 5 11 5 2 4 2 2 4 3 4 5 3 6 3 6 6 4 7 10 9 4 7 9 13 11 7 8 8 9 9 8
16 19 19 12 7 17 11 7 3 1 2 1 4 5 7 4 4 4 3 4 4 4 3 6 1 4 5 6 5 7 7 8 8 6 4 8 10 15 12 9 7 7 8 8 7
15 19 20 9 2 8 18 6 1 2 3 4 3 3 5 1 3 5 3 1 1 4 2 3 5 4 3 8 6 6 5 5 11 8 2 8 6 6 5 5 6 6 5 7 7
14 17 19 6 1 4 4 6 1 2 4 6 4 2 1 1 2 3 3 0 2 3 4 5 3 4 7 5 2 7 2 6 7 5 4 6 4 5 10 7 6 9 8 9 11
13 15 16 8 2 3 3 4 1 1 3 4 4 2 6 1 2 4 4 1 3 4 3 5 5 5 4 6 2 8 10 2 1 4 3 8 2 6 7 10 16 16 14 14 13
12 14 15 4 2 2 4 0 1 5 0 4 3 6 6 6 5 5 6 5 1 3 2 6 4 2 3 8 1 8 3 3 2 3 3 7 4 5 10 15 16 13 13 14 15
12 13 11 4 1 5 2 3 5 5 3 4 3 5 3 4 5 7 4 7 4 7 7 8 5 4 1 6 4 8 6 5 6 6 3 6 4 4 17 13 8 13 12 11 7
13 12 6 4 4 5 1 4 4 2 3 2 3 4 2 6 4 6 2 4 4 4 2 4 8 6 6 1 3 4 3 3 2 5 5 5 3 5 15 15 12 14 11 12 13
13 7 4 2 2 4 3 4 6 5 3 1 3 4 4 3 2 5 3 0 2 2 3 5 6 5 3 3 2 3 4 1 1 0 2 4 4 5 12 18 15 13 14 15 14
11 6 3 3 1 1 4 4 5 3 4 3 2 1 1 4 5 5 1 2 3 2 3 1 5 2 6 2 4 5 3 3 3 5 6 4 4 7 14 15 14 13 13 12 11
6 2 3 3 1 4 3 5 4 3 4 4 5 2 3 2 1 2 3 1 2 4 3 2 2 7 3 3 1 4 3 3 1 2 1 6 4 3 4 7 11 10 10 11 12
0 1 3 3 3 1 3 5 3 4 2 1 3 4 3 1 2 2 3 3 3 2 4 0 3 5 6 3 3 0 2 3 3 5 2 1 5 2 4 3 3 8 9 8 7
2 2 1 2 4 3 2 2 5 4 4 5 5 3 2 3 1 4 2 2 5 4 2 2 1 4 8 4 4 4 2 0 1 2 2 2 5 1 5 6 5 5 6 5 6
2 1 3 3 1 6 5 5 4 2 4 4 4 3 2 2 4 3 2 1 4 0 6 3 2 5 5 6 1 6 10 1 1 2 2 4 6 6 7 5 5 5 5 5 6
2 5 4 4 4 5 6 8 6 6 3 4 1 5 6 3 2 4 3 3 3 6 3 3 2 3 6 9 5 7 10 7 5 4 3 4 3 4 3 2 3 4 4 6 6
4 4 1 2 3 7 7 9 11 5 8 5 5 8 6 6 8 5 4 2 5 3 3 3 2 4 5 3 1 6 8 7 6 3 5 3 5 3 1 2 3 5 5 5 5
8 2 2 2 5 6 6 7 10 8 5 5 8 6 5 10 7 7 5 4 4 6 1 2 1 2 5 5 9 5 4 4 2 3 4 4 5 1 3 4 3 3 5 6 6

GFSSW_925_spd_111.txt.gz
Wind_Speed
6 7 6 7 9 10 10 11 12 14 16 13 9 6 2 3 8 9 6 4 6 10 9 3 7 4 4 3 2 2 1 2 4 5 4 3 5 1 1 1 2 2 2 1 23
8 8 8 9 9 11 11 11 13 14 14 13 9 5 4 3 4 6 6 6 8 10 9 8 4 4 3 2 2 2 2 5 3 3 4 9 7 7 5 9 2 4 4 8 20
9 9 10 11 11 12 12 12 12 12 12 12 9 5 6 1 3 3 8 8 8 9 6 4 3 2 3 2 3 1 3 3 5 7 6 5 10 7 8 10 6 7 6 13 17
10 10 11 12 13 13 13 12 12 12 11 10 7 4 4 2 3 4 7 7 6 6 5 5 4 3 3 2 2 2 4 3 4 3 4 6 6 9 11 11 11 9 7 15 18
11 12 12 13 14 14 13 12 11 11 11 7 5 5 2 4 0 5 6 7 5 6 6 3 4 2 2 1 3 2 3 3 7 10 8 10 12 12 7 9 13 7 8 15 19
11 13 15 15 15 14 12 12 12 11 8 3 3 3 3 3 3 5 6 5 5 5 3 2 1 1 2 1 0 1 6 10 7 6 5 4 5 1 6 4 7 9 11 14 19
13 14 17 17 16 14 15 15 13 7 0 2 1 1 2 4 4 6 7 5 5 4 2 1 3 2 1 2 1 2 5 7 3 2 5 3 4 4 2 4 7 10 9 10 13
15 17 18 16 14 15 17 10 3 3 4 4 2 2 3 2 6 5 6 3 4 3 1 2 2 3 2 2 3 3 2 6 6 6 2 0 9 9 7 3 12 12 7 9 10
16 18 19 16 13 16 13 6 5 5 5 3 2 1 3 4 2 6 5 4 6 4 4 3 2 2 3 3 3 4 6 7 8 2 4 1 10 9 11 11 13 13 8 8 10
15 18 19 15 14 16 5 3 4 4 3 2 2 2 4 4 6 8 4 4 3 2 3 5 3 2 3 4 5 6 6 6 10 5 6 12 14 14 13 9 11 12 13 8 10
15 18 19 16 11 15 2 2 4 3 7 2 1 1 4 10 3 4 4 4 3 6 4 4 4 2 4 3 5 6 5 12 15 13 5 10 15 14 16 12 11 11 12 10 8
14 17 19 13 6 16 5 5 2 1 3 2 2 4 6 2 3 4 7 5 5 3 3 4 1 2 4 5 4 7 10 9 10 4 4 9 16 10 12 11 8 7 9 11 10
14 16 18 10 5 6 12 5 3 1 3 2 2 2 3 2 2 4 4 2 1 3 2 3 3 3 2 6 7 7 4 7 7 7 2 12 5 8 20 9 8 13 10 10 9
13 14 17 9 2 6 4 6 2 0 4 4 3 1 1 1 2 1 4 1 2 2 3 4 3 4 4 4 2 5 2 7 4 2 5 10 3 5 20 20 22 18 15 13 14
12 13 14 8 2 3 5 5 1 2 2 2 4 1 4 3 3 5 4 2 2 4 2 4 5 4 3 4 2 7 10 1 2 1 1 13 2 2 16 20 25 24 17 14 12
10 11 13 4 2 2 5 1 1 5 2 2 2 5 4 5 5 7 6 6 0 3 3 4 3 2 3 4 0 11 3 3 3 1 3 9 3 5 11 17 21 20 15 14 12
10 10 11 3 1 3 2 3 4 4 3 2 2 4 1 4 4 5 4 6 4 6 6 7 4 4 2 5 4 10 6 4 4 6 3 5 3 4 15 21 15 15 14 12 13
11 10 6 4 2 2 2 3 2 2 4 1 2 1 3 5 4 7 2 4 4 4 2 4 6 6 6 2 3 4 3 3 1 3 6 7 7 6 11 14 15 14 13 14 16
12 7 3 4 4 1 4 2 5 5 4 4 2 3 3 3 2 5 2 1 1 2 3 3 5 5 0 3 2 2 4 2 3 1 3 3 1 4 17 20 20 18 18 16 14
8 6 2 6 4 2 4 4 3 3 4 3 3 1 1 3 3 4 1 1 2 1 2 2 4 2 5 0 4 4 3 1 3 5 5 5 3 9 13 16 16 15 15 15 14
3 2 4 7 3 4 3 6 4 3 3 4 5 3 3 1 1 1 3 1 1 3 2 3 2 5 2 4 2 3 3 4 1 1 1 5 3 5 1 9 11 12 12 12 13
3 0 5 7 2 1 4 6 4 5 2 1 4 3 5 5 2 2 3 3 1 1 2 1 3 4 4 5 3 1 2 3 2 2 0 1 3 2 2 4 6 7 9 11 10
3 2 2 4 4 3 3 2 6 5 5 5 5 3 3 5 1 4 2 1 3 1 1 3 1 3 5 2 2 2 1 2 2 2 2 1 2 1 2 2 5 6 7 8 9
3 1 2 2 0 6 5 5 5 2 4 4 4 4 3 3 3 1 2 2 2 1 4 3 3 4 4 4 1 5 4 1 2 1 1 4 4 2 3 2 3 4 5 6 9
2 5 3 4 5 5 6 8 7 6 3 4 1 5 6 4 2 4 3 2 2 3 2 3 3 3 6 10 4 6 14 6 6 4 3 2 3 2 2 2 2 2 4 7 8
6 4 1 2 2 9 7 8 11 4 8 5 5 9 6 7 7 5 4 3 4 2 2 2 1 2 4 1 4 6 8 6 5 4 5 4 4 3 1 2 4 4 4 6 6
9 3 4 4 5 6 6 7 10 9 5 5 9 6 6 10 6 4 5 3 3 5 3 1 1 3 4 4 9 4 4 5 3 4 4 4 4 4 3 4 4 5 6 7 7

GFSSW_925_spd_114.txt.gz
Wind_Speed
7 7 7 7 9 9 10 10 11 11 12 11 7 3 2 3 6 4 7 4 5 9 7 1 3 3 2 2 1 2 5 8 11 9 10 4 6 3 2 7 2 4 4 4 13
6 7 7 8 9 9 10 9 9 10 11 10 7 3 4 5 2 9 5 6 8 10 6 7 4 1 2 2 2 5 5 5 5 9 10 10 12 12 8 11 9 7 2 2 16
7 8 8 9 10 10 10 9 9 9 9 8 6 3 3 3 3 5 7 7 8 9 4 3 3 1 2 1 1 2 5 4 10 10 12 14 14 14 15 17 16 13 11 7 15
8 9 9 11 11 11 11 9 9 8 8 7 5 3 3 2 1 2 6 7 6 5 5 4 3 1 1 0 1 6 5 7 7 7 8 14 14 14 14 16 16 17 15 8 14
8 10 12 13 13 13 10 9 8 8 7 5 2 2 1 3 4 3 5 6 4 4 7 6 6 2 1 2 3 5 6 6 10 12 13 13 14 17 15 15 15 15 11 12 13
11 13 14 15 14 11 11 10 10 8 6 4 3 1 1 3 1 3 6 4 3 3 3 4 4 3 1 2 5 6 10 13 9 9 8 9 11 3 7 4 7 10 13 14 15
12 14 16 15 13 12 13 12 6 3 4 4 3 1 2 3 2 5 6 3 2 1 2 1 3 5 3 3 3 7 9 10 1 6 9 4 12 10 4 6 8 8 8 7 11
12 15 16 15 11 14 12 6 3 5 6 4 3 1 1 1 4 3 3 1 1 1 0 0 1 2 4 4 3 4 5 8 8 5 1 5 13 6 7 7 11 13 12 7 7
12 15 16 13 12 14 7 4 6 4 5 2 1 3 2 3 2 3 4 3 0 2 3 2 1 2 3 5 2 1 9 13 10 6 6 7 13 9 14 13 13 13 13 9 8
12 15 16 13 9 14 2 4 4 4 3 3 1 3 1 2 5 5 3 2 2 1 3 1 2 4 1 7 7 12 13 9 12 8 13 14 16 15 15 16 14 14 13 10 9
11 14 16 12 7 13 3 1 3 3 2 2 4 2 2 7 1 3 4 4 1 1 5 2 3 6 8 6 10 11 12 13 11 8 10 9 14 6 12 10 10 9 10 9 8
11 13 15 9 5 10 6 4 3 2 3 1 1 4 3 3 2 4 9 4 3 4 6 3 3 6 9 7 9 11 11 12 4 5 4 15 4 4 11 10 10 13 11 10 10
10 11 13 7 2 6 10 4 1 1 2 2 1 2 1 2 2 5 8 5 4 3 6 4 4 7 8 11 13 9 10 13 10 10 3 14 6 4 17 14 15 13 12 10 10
10 11 12 5 3 3 4 3 2 1 4 4 2 2 1 2 2 4 5 3 2 4 6 3 2 6 9 10 10 9 14 10 5 5 7 11 4 5 20 20 20 18 17 14 12
11 10 10 6 2 2 0 1 3 1 4 4 2 2 2 2 4 3 4 2 5 5 4 5 5 7 8 11 9 10 13 4 2 2 5 15 4 10 21 20 26 23 20 16 15
10 10 9 2 2 2 1 5 2 4 3 5 1 2 3 4 2 6 3 3 1 2 2 4 3 2 5 15 5 16 5 3 2 2 3 7 5 10 13 18 21 22 17 14 13
10 9 9 3 1 1 4 3 4 5 2 5 2 2 1 3 2 5 4 7 6 5 7 6 2 1 3 10 2 16 11 2 1 3 5 8 6 5 15 21 16 14 15 14 13
10 9 7 4 5 2 3 4 6 2 3 2 2 2 2 2 2 3 1 2 4 4 3 5 3 6 9 4 7 8 6 3 3 6 5 9 10 6 14 12 16 16 14 15 15
9 6 3 4 7 3 4 5 2 3 5 7 3 3 3 2 2 1 2 1 3 6 7 5 2 2 2 3 4 5 5 2 1 2 4 3 12 4 15 16 18 19 18 17 16
2 3 3 8 8 3 4 3 4 4 6 3 5 2 4 3 3 1 1 2 2 2 2 2 5 2 2 3 2 5 1 1 2 5 5 5 11 7 16 16 16 19 18 16 15
1 3 3 9 6 4 6 4 4 5 5 5 5 4 3 3 2 2 2 3 3 2 0 1 3 1 3 2 4 1 2 3 1 3 4 6 6 5 8 11 13 13 13 13 13
5 4 6 11 5 2 7 4 5 8 3 3 3 3 5 6 4 4 3 2 2 1 1 2 3 5 3 3 3 2 2 4 4 2 1 3 3 5 5 6 8 9 10 11 10
4 2 4 5 6 7 3 3 6 7 7 7 7 4 2 6 4 4 5 4 4 2 0 3 2 5 4 5 3 3 1 1 2 2 2 3 4 3 3 4 6 7 8 9 11
5 6 3 4 2 8 8 6 7 4 5 4 4 5 4 5 4 5 5 3 3 2 2 4 3 6 6 7 4 8 5 8 5 4 3 3 5 2 3 3 5 4 6 7 10
5 7 8 7 10 10 11 10 12 8 3 6 3 7 7 5 4 5 5 4 2 2 2 3 4 4 10 15 14 15 15 11 11 9 5 3 4 2 3 4 5 5 4 7 9
7 6 3 8 7 19 13 12 15 8 12 8 8 13 10 6 7 7 7 5 3 5 4 2 1 3 6 4 4 9 12 11 11 10 12 10 8 3 6 5 6 7 7 8 8
11 2 4 9 9 12 16 19 15 12 9 6 15 7 12 14 5 5 0 3 4 5 6 3 2 3 3 4 13 9 4 10 6 7 5 4 3 9 7 8 8 8 8 9 9

GFSSW_925_spd_117.txt.gz
Wind_Speed
9 8 9 9 9 10 10 10 10 11 11 10 7 4 5 5 6 3 10 5 6 9 6 3 2 1 4 3 6 5 6 11 13 13 11 9 8 12 2 11 8 4 8 6 11
8 9 9 9 9 10 10 10 10 10 10 9 6 5 5 6 6 11 5 6 8 9 6 8 5 2 2 2 3 6 8 12 10 10 11 12 12 12 12 10 15 12 8 2 7
8 9 9 10 10 11 10 10 10 10 9 8 6 4 5 4 9 6 6 7 8 7 6 6 5 4 3 4 3 3 11 9 9 10 12 14 15 14 15 16 17 15 10 10 7
8 9 10 11 12 11 11 10 10 9 9 8 5 2 1 4 2 4 5 6 7 6 7 7 5 4 5 5 2 8 7 7 10 9 10 13 14 16 16 15 15 15 16 14 11
9 10 11 12 12 12 10 10 10 11 9 7 4 2 3 5 6 1 4 6 4 6 8 8 7 5 7 7 7 9 8 10 11 12 13 14 16 16 16 15 14 15 17 18 14
10 11 14 13 13 10 12 12 13 11 9 5 3 3 5 2 2 0 3 3 5 7 7 7 6 7 8 9 8 9 12 13 11 9 11 12 14 14 12 4 9 12 16 15 15
10 12 15 14 11 12 13 11 8 6 5 4 4 2 8 6 1 2 3 3 3 5 8 4 6 7 9 10 4 10 10 11 1 5 10 8 14 16 12 6 10 11 11 12 11
11 13 16 14 10 14 10 5 1 2 4 2 3 4 2 3 1 1 3 2 3 3 5 4 5 6 5 9 10 7 7 8 9 4 3 5 12 10 4 10 10 14 13 11 10
11 13 16 15 9 12 3 2 3 2 4 1 3 6 4 1 2 4 4 6 5 3 3 3 5 5 7 9 10 6 12 12 8 2 5 7 15 13 13 14 14 15 14 15 12
12 13 15 15 7 10 2 2 1 3 1 2 5 6 3 2 4 3 3 4 5 5 9 6 5 9 3 10 9 15 15 13 11 9 11 11 13 11 10 11 12 12 13 15 14
13 13 14 12 7 7 2 2 5 5 7 5 4 2 2 5 2 3 3 6 6 9 6 1 9 6 9 9 11 13 14 14 11 7 10 11 8 5 6 5 8 12 11 13 13
13 12 14 12 4 6 2 4 3 4 3 2 2 3 1 3 5 4 8 6 8 8 7 7 3 6 9 11 13 15 12 13 7 3 8 12 4 3 10 12 15 11 11 11 11
12 11 13 11 3 3 4 1 1 1 4 6 3 4 1 5 4 2 7 8 7 7 6 8 6 6 9 11 13 14 9 15 15 13 7 16 8 8 17 13 15 18 19 15 13
14 10 10 7 2 1 1 0 2 2 5 10 6 4 4 3 4 1 3 3 3 5 8 6 3 6 10 10 12 11 17 13 8 7 7 10 3 7 16 15 18 16 16 16 13
13 11 8 5 4 3 2 1 2 3 5 6 5 3 1 4 3 4 1 4 5 5 4 5 6 8 9 11 11 10 14 8 6 9 7 12 5 5 19 16 22 20 15 14 12
12 11 8 2 3 1 0 2 3 5 4 6 4 3 5 2 2 4 2 3 2 4 6 5 3 3 7 14 7 14 14 5 6 8 1 13 5 5 12 12 17 16 16 14 15
12 11 8 5 1 2 3 4 5 7 3 7 5 3 3 2 3 2 2 5 5 4 1 5 4 1 6 13 3 15 14 3 2 4 7 13 3 7 12 11 11 12 14 14 13
10 10 9 7 5 3 5 5 9 3 5 4 4 5 5 1 3 1 3 2 3 6 5 4 4 4 8 6 7 8 7 3 2 5 6 8 8 6 9 5 8 14 14 13 14
6 6 7 6 9 5 6 9 9 3 7 9 5 7 6 4 4 4 1 1 3 6 6 4 0 3 4 4 7 9 7 3 2 5 5 2 9 5 10 14 16 16 16 16 14
6 7 11 10 10 8 7 14 3 3 5 9 8 6 6 7 5 3 2 3 2 2 6 3 4 3 2 2 3 4 3 2 1 4 5 3 9 8 14 15 15 17 16 14 13
9 4 8 11 11 6 11 17 5 7 7 7 7 6 5 5 4 3 2 5 2 3 4 4 3 5 3 1 5 2 2 3 3 2 4 7 7 8 10 10 12 13 11 13 13
9 6 12 16 8 8 14 12 2 11 6 4 3 6 8 7 5 4 2 1 3 1 4 3 5 4 2 4 1 3 4 6 4 6 4 4 4 7 7 8 9 10 10 10 11
5 6 7 13 9 13 11 6 8 10 10 9 9 7 4 7 5 5 4 4 4 2 3 1 3 5 8 4 3 4 1 4 6 4 7 4 4 4 5 8 7 9 10 9 10
6 7 5 7 12 14 18 15 10 11 9 6 7 8 8 7 4 5 5 4 4 3 2 1 6 8 7 7 5 9 8 6 6 4 8 3 5 4 4 4 7 8 8 9 8
7 13 12 10 16 16 16 12 19 10 8 12 7 12 11 7 7 6 7 6 5 5 3 4 6 6 11 11 11 13 12 12 13 12 7 8 6 3 1 4 6 8 8 9 10
10 8 8 12 20 24 17 20 21 18 16 12 12 17 14 8 8 9 11 8 5 7 6 4 4 6 12 7 5 10 9 10 12 12 12 13 12 0 6 7 7 8 9 9 9
15 14 6 12 16 18 24 24 23 17 14 13 18 11 16 14 6 6 4 3 1 5 8 4 3 4 3 2 8 11 4 11 12 7 9 6 5 8 7 7 8 9 9 10 10

GFSSW_925_spd_120.txt.gz
Wind_Speed
10 10 10 11 12 12 13 12 12 12 11 10 9 7 7 9 11 8 7 4 6 8 9 10 6 2 4 2 1 2 3 5 11 9 10 12 11 9 10 5 5 9 3 12 11
10 10 11 11 12 13 13 13 12 12 10 9 8 7 7 10 12 9 3 5 7 8 12 10 8 6 3 2 2 2 4 8 9 8 10 13 13 13 13 9 7 8 2 14 10
10 10 11 13 13 14 13 13 12 11 9 8 7 7 7 6 8 5 4 6 8 8 9 6 6 2 4 2 5 3 6 11 11 9 9 10 13 13 12 10 9 12 12 8 15
10 11 13 15 15 14 14 13 12 10 9 7 7 6 5 1 2 5 3 6 7 10 11 12 7 3 3 4 0 4 12 7 7 9 10 11 13 11 10 9 10 10 10 10 5
11 12 14 16 15 14 12 14 12 11 9 7 5 6 3 6 5 2 4 6 7 9 9 8 8 6 6 8 8 10 7 10 11 9 7 10 10 12 12 10 10 10 11 10 9
13 13 15 16 16 13 15 15 14 11 9 7 5 5 4 6 6 3 1 3 4 8 9 7 6 7 7 9 5 8 10 12 11 9 6 8 9 8 10 9 1 6 10 10 10
13 14 15 17 17 14 18 14 9 5 5 5 4 2 7 2 3 1 2 3 3 5 6 6 8 6 8 8 3 8 11 12 6 2 3 6 10 5 13 8 5 8 9 8 9
14 15 16 18 17 13 17 8 3 1 3 3 4 2 3 6 3 3 2 5 4 2 4 5 6 8 7 7 6 10 10 5 6 4 5 4 9 10 11 7 9 10 9 9 8
15 16 18 18 15 13 11 3 1 1 3 1 3 5 3 5 5 1 3 5 6 4 4 5 4 8 6 6 7 2 9 11 7 5 7 7 8 8 12 12 10 10 11 13 10
14 16 17 18 14 13 5 4 3 2 3 4 9 5 5 1 2 3 4 2 3 6 8 5 6 7 4 6 6 10 11 9 10 5 7 7 8 8 7 5 5 10 13 14 11
15 15 16 17 12 12 4 6 3 4 9 3 0 6 2 4 3 9 1 8 9 8 8 5 4 3 8 6 9 11 12 11 10 5 4 5 4 5 13 14 14 14 15 17 15
14 16 16 16 10 6 7 5 4 4 4 5 4 4 1 2 4 9 1 6 7 8 5 4 6 7 5 8 10 10 13 8 8 7 5 6 9 14 10 11 8 11 12 16 18
16 12 15 18 9 4 4 4 4 5 5 8 8 6 2 2 4 2 4 7 9 8 4 4 4 3 7 9 11 11 9 11 12 11 11 6 6 5 7 10 10 10 10 13 15
14 14 13 15 6 3 2 3 2 2 4 10 7 4 6 2 3 2 2 2 4 4 5 6 3 3 7 7 10 8 11 10 10 5 4 5 2 4 5 8 14 12 9 11 14
15 12 12 11 11 5 3 2 1 2 4 11 7 4 3 4 1 5 2 4 6 7 2 2 3 5 7 7 8 6 11 13 6 7 5 7 3 5 12 12 15 12 11 11 9
15 13 9 4 8 4 3 1 3 3 6 6 7 6 8 6 5 1 5 5 2 4 6 7 3 1 4 11 10 9 14 4 4 3 2 6 2 4 5 4 10 12 11 12 11
16 14 10 7 1 3 0 3 4 6 7 7 7 6 7 6 5 2 1 1 3 4 1 7 6 4 2 8 3 9 10 3 3 3 1 6 3 1 5 1 4 12 12 11 11
16 15 12 14 5 4 4 4 8 7 11 7 6 6 5 6 3 3 4 5 4 5 5 3 3 1 5 2 4 8 5 2 2 3 4 6 2 2 1 6 8 9 10 12 14
13 17 12 14 16 9 5 8 6 13 9 11 8 7 7 5 1 5 3 3 4 4 4 4 1 4 2 2 4 5 4 1 1 5 2 4 4 4 9 8 9 11 13 13 13
7 13 18 19 18 12 6 12 12 1 7 12 10 11 10 10 5 5 5 3 5 2 3 2 4 2 4 3 4 2 1 1 2 3 5 2 5 4 8 9 11 13 12 12 12
6 4 4 26 18 6 10 11 15 6 5 9 8 6 7 7 8 5 5 2 1 5 3 3 3 4 2 3 4 2 1 2 2 1 2 4 3 6 7 7 9 9 11 12 11
6 6 15 24 8 6 13 14 12 9 4 4 4 4 9 6 7 5 5 4 5 2 1 4 4 4 4 6 4 3 3 2 1 4 3 4 2 7 8 6 10 10 9 5 8
4 8 11 18 9 14 12 20 18 10 9 7 8 5 2 6 5 4 5 3 5 3 2 2 4 4 3 1 2 4 6 1 3 3 6 1 2 6 8 7 8 8 8 6 7
5 6 4 8 10 14 17 20 15 9 9 8 7 6 6 7 2 6 6 4 5 2 4 1 3 6 5 4 1 4 4 4 4 1 5 2 3 7 7 8 7 7 7 5 6
5 9 10 7 11 14 14 14 17 9 7 11 5 7 9 6 7 5 6 5 4 7 4 2 4 7 9 8 7 7 7 7 8 8 3 4 5 3 8 9 8 7 9 8 6
8 9 9 9 17 20 16 16 24 17 13 15 7 15 12 5 7 9 11 6 5 6 6 5 3 4 10 13 7 7 6 6 7 9 7 7 8 8 8 9 8 8 7 7 7
10 9 6 8 16 17 23 21 18 17 14 12 17 13 13 10 5 6 6 6 6 8 8 6 3 2 4 3 6 8 11 12 9 6 8 7 4 8 7 8 8 9 8 7 8

GFSSW_925_spd_123.txt.gz
Wind_Speed
11 10 11 11 12 13 13 13 14 12 12 12 10 9 9 10 9 6 3 3 5 7 10 11 7 2 1 2 1 4 3 3 4 7 6 8 11 8 6 5 3 0 3 3 10
10 10 11 12 13 14 15 14 14 13 12 11 9 9 9 10 7 3 3 4 6 6 8 6 3 2 0 1 0 3 2 4 1 4 4 8 8 8 8 9 6 4 9 10 5
10 11 12 14 16 16 15 15 13 12 11 10 9 9 8 6 2 3 3 4 7 7 9 15 12 2 1 2 2 3 3 5 9 4 6 7 10 8 9 7 6 8 4 5 5
11 12 14 16 18 17 16 14 14 13 11 9 9 7 6 2 2 4 2 3 4 9 10 11 7 2 2 3 2 2 7 7 5 4 4 5 6 7 7 9 8 9 7 8 10
13 13 15 17 19 18 14 15 16 14 11 9 8 5 2 1 4 6 3 3 5 9 7 3 5 4 2 4 6 3 4 6 8 9 6 6 6 6 9 11 10 10 8 8 5
15 16 17 19 20 19 13 16 14 12 10 8 7 4 0 1 6 4 2 0 2 6 8 6 2 4 4 4 2 4 5 8 8 10 3 0 5 3 13 9 8 3 7 9 9
14 17 18 20 22 18 15 17 11 9 6 5 5 2 2 6 8 5 1 3 3 1 2 5 5 4 5 5 5 4 7 8 9 5 4 5 7 5 7 11 9 8 8 9 9
12 15 18 20 22 17 17 12 6 3 1 3 4 2 4 7 8 5 5 8 6 4 2 4 2 1 2 4 6 3 2 4 5 6 4 5 5 5 8 10 11 11 10 13 14
15 15 17 19 21 17 16 7 4 3 3 1 2 3 5 8 5 7 4 2 4 5 6 4 0 3 3 1 4 5 3 7 7 4 3 3 3 5 9 12 13 13 13 13 14
17 17 16 18 21 17 12 7 6 4 2 3 8 3 4 4 6 5 6 5 5 2 1 2 2 1 4 5 2 6 5 6 6 3 3 4 3 8 9 11 8 9 12 11 13
15 18 18 17 19 15 11 4 3 2 4 6 4 3 4 3 2 7 10 6 5 1 4 4 3 1 1 1 6 6 4 6 5 2 2 2 5 6 6 10 11 9 9 14 13
14 16 17 18 18 10 9 0 2 1 5 11 6 3 3 3 2 4 5 1 2 5 6 5 2 4 3 5 4 4 4 5 6 8 2 5 4 5 7 4 4 6 9 11 16
17 15 17 17 18 6 4 1 4 1 2 5 6 4 4 5 2 2 2 2 4 4 3 3 2 2 2 4 5 3 2 3 4 8 4 4 1 2 1 3 5 6 6 7 9
15 15 15 20 7 8 0 4 1 1 2 4 5 4 5 4 2 3 3 2 3 4 1 3 3 0 4 2 3 3 3 2 6 5 2 2 4 3 5 5 4 5 7 11 11
16 16 13 11 16 5 1 4 2 0 2 5 5 5 6 5 5 2 3 2 2 4 5 5 2 2 2 2 2 7 7 8 4 3 3 6 4 4 5 8 11 11 13 12 12
17 14 17 2 7 6 5 1 2 4 6 6 5 6 5 4 3 6 3 1 3 2 3 6 2 3 2 5 3 8 5 6 4 2 2 5 4 4 4 6 7 12 12 13 12
17 14 13 12 3 3 1 3 3 4 2 5 5 7 7 6 4 5 4 3 2 3 1 1 3 2 2 3 6 9 6 4 5 4 4 3 4 5 5 4 4 11 11 11 12
17 15 15 21 10 5 3 3 5 7 7 4 6 7 6 6 3 6 2 3 1 2 2 3 3 5 1 2 2 3 4 4 4 0 5 6 3 4 4 5 2 8 9 11 13
15 16 12 24 19 9 3 3 8 7 6 8 6 4 4 2 4 4 6 5 4 2 3 2 2 0 2 1 3 3 3 4 4 2 2 2 3 1 4 3 7 10 11 11 11
15 6 16 19 17 11 3 9 7 4 7 3 9 7 8 8 6 7 7 2 5 3 3 2 0 4 2 0 2 3 5 2 2 2 3 3 2 3 4 5 5 8 10 10 10
13 3 9 22 22 3 7 8 11 11 3 6 8 6 6 8 8 5 6 1 5 5 1 2 4 4 4 3 4 1 1 1 3 5 3 2 5 4 3 3 3 6 8 9 9
5 4 8 35 6 4 9 7 12 8 2 2 3 5 7 8 7 7 6 4 6 7 4 2 4 2 2 2 2 2 2 3 4 3 2 3 4 5 7 6 2 7 5 6 8
3 4 19 19 11 10 5 14 10 5 7 7 7 4 3 7 5 5 5 2 7 4 6 4 2 1 5 4 3 1 3 3 2 2 4 3 4 5 7 7 3 6 5 5 8
4 3 3 5 7 12 13 14 20 7 6 6 6 4 5 5 4 6 4 3 4 3 6 4 2 5 6 5 3 3 4 5 6 2 3 5 5 6 7 9 7 4 4 6 7
3 5 7 9 13 14 4 9 16 14 7 9 5 7 9 5 4 5 4 3 2 5 4 4 4 4 5 7 4 5 6 6 7 7 4 6 2 8 11 12 11 8 5 6 7
4 4 4 10 16 19 14 6 21 15 13 10 6 10 8 9 9 9 9 6 6 3 6 3 3 1 4 6 7 7 9 9 8 6 7 7 8 6 7 7 8 10 9 7 7
1 4 2 10 9 16 23 21 14 10 7 15 9 9 10 7 8 7 6 9 11 9 8 7 4 2 4 5 4 6 8 10 6 5 9 7 8 7 8 12 12 11 12 11 9

GFSSW_925_spd_126.txt.gz
Wind_Speed
9 11 12 12 13 14 15 14 13 13 11 10 9 9 9 11 9 2 2 2 1 3 6 5 1 1 2 2 1 3 4 1 2 3 5 5 6 1 5 5 3 7 3 4 9
9 11 12 13 14 15 15 15 14 13 11 9 8 8 9 10 5 3 4 1 1 2 4 5 3 3 2 1 1 4 3 4 3 3 4 3 1 6 5 7 3 4 2 2 4
9 10 12 14 15 16 16 14 12 12 10 10 7 7 7 5 2 5 5 2 2 5 8 7 8 2 1 2 3 4 4 4 6 5 4 4 7 2 3 5 6 9 5 4 4
10 11 14 16 17 18 18 13 13 12 10 10 7 5 5 1 3 5 6 2 2 6 8 4 4 3 2 1 1 0 5 4 5 4 5 5 4 6 3 9 8 8 4 4 7
10 11 13 15 19 19 17 14 14 11 10 9 7 3 2 2 6 7 6 3 1 5 4 2 4 2 1 3 5 3 3 4 6 9 5 5 6 4 8 13 8 8 7 3 7
13 13 13 15 19 21 16 15 14 10 7 7 5 3 1 2 5 9 5 4 3 2 3 4 2 1 1 2 1 2 4 8 8 8 3 4 3 2 6 8 12 12 10 9 8
13 16 15 14 17 21 17 17 10 7 5 5 5 3 1 9 9 8 6 5 5 2 1 1 2 3 1 3 3 5 6 8 3 3 4 2 4 2 6 4 11 11 9 9 10
13 14 17 17 17 19 18 15 7 5 2 2 4 3 5 3 11 11 10 7 7 5 3 2 2 2 2 3 6 4 4 4 6 2 1 3 5 5 9 9 9 8 8 9 11
14 14 16 16 18 19 17 12 5 3 2 1 2 2 7 7 8 13 10 5 6 8 7 1 2 1 3 3 5 5 2 4 6 4 3 3 2 5 6 8 9 9 11 14 13
15 16 15 16 17 20 14 8 4 4 2 2 3 2 5 5 8 10 11 8 2 1 2 2 4 2 3 4 1 4 4 4 5 4 2 2 2 4 6 8 7 8 9 9 11
17 17 17 15 16 17 14 3 4 3 2 8 5 4 2 3 7 8 11 4 2 3 2 1 3 3 6 6 4 2 3 4 4 2 2 2 3 2 4 6 9 9 9 11 13
18 18 18 17 15 15 5 2 3 1 6 11 11 6 6 5 2 4 9 4 4 5 2 3 5 8 7 0 1 1 2 4 6 5 4 4 2 3 4 1 3 8 11 11 12
17 18 20 18 17 5 2 1 1 3 2 7 7 5 5 7 5 4 8 4 5 3 4 5 4 5 1 1 3 2 4 3 5 6 3 5 2 4 4 3 5 7 9 12 10
17 16 19 20 5 8 1 1 1 2 2 5 6 5 6 5 3 5 5 5 1 4 4 4 1 3 2 2 3 3 7 5 3 3 2 3 4 3 5 8 4 7 12 11 13
17 15 15 16 12 2 1 3 3 1 3 3 4 8 6 7 5 4 3 3 4 3 5 5 4 2 2 4 3 8 3 6 3 3 2 4 3 5 5 7 9 15 14 14 13
17 16 13 7 8 3 3 2 2 4 7 3 5 6 5 3 3 4 2 2 1 1 1 5 0 4 4 2 4 5 2 7 5 3 2 4 3 4 4 4 6 12 13 14 14
22 16 15 9 4 3 1 3 3 5 1 6 6 6 5 6 4 6 5 3 4 3 1 2 3 2 2 2 3 8 5 2 4 4 4 1 2 6 2 4 5 11 11 13 12
21 19 20 22 15 6 3 4 5 7 7 2 5 6 8 7 6 7 6 3 3 3 2 4 4 5 2 3 2 1 5 4 5 1 4 4 2 5 4 6 3 6 8 10 13
22 21 16 28 18 15 1 4 9 7 6 9 4 4 5 5 6 4 7 5 7 7 6 4 3 1 2 2 4 1 1 3 5 3 3 3 2 3 4 3 3 7 7 9 10
14 7 14 25 15 13 2 11 8 6 4 4 11 6 9 8 6 7 8 4 6 4 3 5 1 4 3 2 1 2 5 2 3 2 2 4 3 4 4 4 3 5 6 6 8
11 2 7 26 20 3 9 8 8 7 3 6 8 7 7 8 8 7 7 1 6 6 4 3 3 2 3 4 6 1 1 1 3 4 4 1 5 5 6 5 6 1 1 3 6
5 4 5 28 7 3 10 8 6 13 6 7 4 5 9 10 7 7 10 5 8 8 7 3 4 3 5 2 2 4 5 5 4 3 1 3 5 3 7 7 7 5 2 3 6
3 2 5 12 7 10 4 8 8 12 6 8 8 7 4 8 5 4 5 1 7 6 8 6 2 1 5 4 3 3 4 4 4 2 4 5 5 3 4 7 6 7 5 3 6
2 3 1 4 8 7 11 13 21 8 7 5 7 4 4 3 4 7 4 1 3 4 7 5 3 5 6 4 4 4 5 5 6 3 3 5 3 5 7 7 7 7 7 6 6
5 4 3 5 13 21 8 8 18 15 15 11 6 10 8 5 3 5 4 3 4 7 3 5 5 5 6 7 3 6 6 8 8 6 6 4 7 7 13 12 10 9 8 8 9
4 4 3 2 19 24 20 11 18 20 12 14 13 9 8 8 8 9 9 5 6 3 6 2 2 3 4 4 8 6 9 10 9 6 7 5 9 7 8 8 8 10 11 10 8
11 6 3 7 8 14 20 27 19 12 13 14 15 10 11 11 6 3 4 9 11 10 7 7 5 3 4 3 3 6 9 10 6 6 10 9 10 6 4 12 13 13 12 13 12

GFSSW_925_spd_129.txt.gz
Wind_Speed
11 10 10 10 10 11 12 11 11 9 8 8 8 8 7 7 6 3 2 1 1 4 6 5 2 1 1 2 2 3 4 2 3 1 6 4 4 3 3 3 4 2 1 3 5
12 12 12 13 14 13 13 12 10 8 7 8 6 7 7 7 5 3 3 2 2 2 5 4 2 1 2 1 2 4 3 6 5 3 4 4 2 4 3 5 3 5 4 3 7
12 13 14 14 15 16 15 11 9 10 8 7 5 6 6 5 4 5 7 4 2 3 6 6 4 2 0 1 1 3 4 4 5 6 6 3 5 1 3 6 6 7 7 5 6
13 14 15 15 16 17 17 12 12 11 8 6 5 4 3 3 3 3 7 4 2 4 6 2 2 3 1 1 1 0 5 4 4 4 1 3 2 6 2 6 10 6 6 4 6
13 15 16 17 18 17 16 13 14 11 7 6 4 3 2 3 6 6 8 6 4 3 1 0 3 2 3 1 2 3 3 3 6 8 6 2 4 4 2 5 7 7 9 9 7
13 15 17 18 18 20 17 13 15 8 6 4 3 3 2 1 3 9 8 7 6 3 0 2 2 4 2 2 1 1 4 7 6 6 4 2 1 5 0 7 8 10 8 6 6
13 15 17 19 19 19 19 14 9 5 2 1 4 4 2 9 3 9 9 7 6 3 2 2 2 2 2 2 2 3 4 6 2 4 2 5 1 2 4 4 8 9 8 6 5
15 14 16 19 20 21 20 14 6 2 3 4 6 3 5 4 10 12 11 8 6 5 2 2 2 3 2 2 6 3 4 4 6 4 2 4 7 0 5 4 7 7 8 8 7
18 19 18 16 19 23 23 13 3 1 4 5 4 2 7 2 7 15 12 6 4 6 4 2 1 2 4 3 4 6 1 2 7 2 1 2 5 1 4 5 7 7 8 10 13
16 18 22 22 17 20 24 11 2 2 5 4 4 2 4 5 6 13 14 9 2 3 2 2 4 2 3 4 2 4 2 4 5 4 1 3 7 3 3 4 4 5 5 7 9
17 16 18 21 23 19 21 3 2 2 4 7 6 5 2 3 8 7 9 7 2 3 2 1 2 5 7 6 4 2 3 4 4 4 3 5 5 5 4 4 6 7 9 11 9
20 20 18 19 22 22 7 3 3 2 7 10 8 5 8 4 2 4 10 5 4 5 2 3 6 9 5 4 4 4 2 4 5 4 2 3 6 3 5 4 2 8 12 10 9
21 21 20 19 20 9 5 4 7 5 3 7 6 7 5 9 6 6 11 5 5 4 6 7 5 5 5 3 3 2 4 3 5 5 1 0 6 2 4 3 5 6 6 10 10
20 19 21 21 7 10 5 3 4 2 3 6 5 6 8 6 4 6 11 6 2 8 6 5 3 5 3 3 5 2 5 3 3 3 3 3 4 3 4 7 4 8 9 10 14
18 19 16 15 14 5 4 5 1 2 4 3 3 6 5 9 5 3 3 3 5 5 5 6 5 3 3 4 5 6 2 3 3 3 2 2 3 5 5 6 10 11 13 13 13
21 16 18 11 8 7 9 5 2 4 7 3 5 6 6 4 3 3 3 3 1 2 1 5 1 4 6 2 3 2 3 6 4 3 2 3 3 4 4 5 8 10 13 13 14
21 21 18 13 3 2 9 2 1 5 2 6 6 7 5 6 5 6 6 4 5 3 5 1 3 2 3 3 1 5 5 2 3 3 5 1 2 7 3 2 3 10 12 11 10
24 24 19 25 18 11 5 3 7 8 8 1 3 7 7 6 6 7 6 5 5 4 2 5 3 6 3 4 5 2 5 5 5 2 5 4 3 4 3 2 3 6 8 8 9
24 19 11 21 22 16 3 7 10 7 7 8 3 4 5 5 5 5 8 6 8 9 7 5 3 2 2 3 5 3 2 4 6 1 3 3 5 1 2 4 5 7 7 9 7
16 13 14 20 17 13 3 17 8 6 4 5 11 6 9 8 7 8 9 5 6 7 4 6 3 2 3 3 4 2 6 3 3 1 3 4 5 4 5 5 5 4 5 7 8
11 4 5 15 20 4 12 10 15 11 4 7 9 8 7 8 9 7 7 2 4 6 5 5 3 1 3 4 8 2 1 4 4 4 3 2 5 5 6 6 5 5 3 4 6
6 6 4 23 5 3 16 10 7 17 3 6 4 5 9 9 7 8 11 4 9 8 8 5 5 4 5 2 3 4 6 6 4 3 1 3 5 2 5 6 6 3 2 1 2
4 7 6 10 7 6 8 14 14 10 15 8 6 7 4 9 4 5 6 1 8 7 9 7 1 2 4 5 2 4 5 4 5 3 5 5 5 3 4 5 6 5 4 2 3
4 5 4 4 1 14 13 19 16 11 12 6 7 4 3 3 1 7 4 2 4 4 6 5 3 5 6 4 5 5 5 6 6 4 4 6 3 6 7 8 7 6 5 5 4
6 7 3 4 9 12 12 9 21 15 16 4 6 10 8 5 4 5 3 3 5 9 4 5 5 4 5 5 2 4 5 8 8 6 6 5 8 6 14 14 13 8 6 7 7
7 7 3 5 8 15 17 15 20 21 12 20 17 9 8 8 9 8 9 5 7 3 6 1 2 4 3 3 7 6 9 9 9 4 7 4 8 8 4 8 8 10 9 9 7
15 20 5 12 12 12 15 21 24 20 9 26 13 17 8 11 7 5 5 9 11 11 7 8 6 4 4 1 1 6 11 14 6 6 10 10 10 6 5 12 15 14 14 13 10

GFSSW_925_spd_132.txt.gz
Wind_Speed
11 12 14 15 14 15 17 16 13 10 8 7 6 5 6 6 4 3 4 3 4 3 7 6 6 5 4 3 3 3 4 2 3 4 4 3 2 2 1 2 4 3 2 4 3
12 11 13 15 16 18 16 16 13 12 10 8 6 6 5 6 3 4 4 4 4 5 7 7 3 4 3 1 2 4 3 7 5 3 4 3 1 2 2 5 3 4 5 5 2
14 14 14 15 16 17 19 16 12 14 14 9 7 6 4 3 1 4 8 7 4 4 6 3 3 3 1 1 2 3 4 4 4 7 4 2 2 1 2 4 2 7 7 7 7
11 13 13 14 16 19 19 17 14 15 14 11 7 4 2 1 3 3 9 6 4 3 4 4 3 4 2 2 2 1 5 4 4 4 3 3 1 2 4 2 5 6 4 4 9
13 14 15 15 15 18 23 20 17 17 12 11 7 3 2 2 6 6 10 7 3 2 2 3 2 3 3 3 1 3 3 4 7 6 6 3 3 3 4 2 5 6 9 8 7
15 15 17 17 16 16 18 23 22 14 11 9 6 5 2 2 1 9 10 7 5 3 2 3 4 5 3 2 2 3 4 6 5 4 3 5 2 6 3 3 5 5 7 5 5
18 17 17 20 21 19 18 19 20 15 9 6 6 4 1 7 2 10 9 6 3 4 3 2 3 3 3 1 2 2 4 7 2 3 1 5 1 4 1 1 5 7 6 5 5
20 20 20 20 22 23 21 19 13 10 7 2 6 2 5 2 7 12 11 5 4 5 3 3 3 3 1 1 5 3 4 4 4 4 2 3 7 4 2 2 4 7 7 6 5
22 22 21 22 21 22 23 21 7 1 4 1 2 2 6 1 5 15 12 5 4 4 3 5 3 3 3 3 4 5 2 3 7 2 3 4 5 4 3 1 4 6 7 9 11
21 23 24 23 22 23 24 11 0 1 2 4 5 3 2 5 5 10 12 8 3 5 3 4 4 2 3 4 3 4 2 4 5 4 1 4 9 5 3 1 3 6 7 7 8
21 22 24 25 25 24 23 3 4 2 3 8 5 4 1 2 7 6 9 9 4 4 3 2 3 6 8 7 3 2 3 5 5 5 3 3 6 6 4 2 4 6 7 9 11
18 20 24 24 24 25 10 2 2 2 6 10 10 8 6 1 2 3 13 6 5 5 4 4 6 10 4 4 4 3 3 5 5 3 1 5 8 5 3 1 4 7 10 11 9
18 18 20 23 24 9 9 5 8 2 2 7 6 7 6 9 6 7 10 6 4 6 6 7 5 3 6 3 3 3 4 4 5 5 0 5 6 3 2 2 4 7 8 7 11
19 18 16 22 7 16 6 10 5 3 4 7 4 7 8 6 4 7 13 7 2 8 6 6 5 6 4 4 6 3 3 3 2 4 2 3 4 4 2 6 4 8 11 10 14
18 19 16 11 14 4 7 16 4 1 4 4 4 3 3 11 7 2 4 4 8 6 6 6 5 5 4 6 7 6 1 1 1 2 3 2 2 6 3 4 6 9 10 13 13
20 21 18 10 6 8 10 6 4 4 9 3 6 6 5 1 2 4 3 5 3 5 1 5 2 5 7 2 3 3 2 5 4 2 2 2 3 5 3 3 4 7 10 13 13
22 21 19 11 4 3 13 3 0 6 2 6 5 7 4 5 4 6 6 5 6 5 5 1 3 2 3 3 1 3 5 3 4 3 5 1 2 8 3 2 3 5 9 9 10
24 25 23 18 16 12 2 3 7 6 9 3 2 5 7 5 5 5 7 6 4 4 3 6 3 7 5 5 7 2 5 5 5 2 4 3 4 4 1 4 1 3 5 6 7
24 21 15 14 12 14 3 7 9 7 5 8 3 3 5 4 5 4 8 7 9 10 8 5 4 1 2 3 5 3 2 4 6 2 3 3 6 5 1 3 2 5 5 4 5
16 14 14 23 13 8 3 13 10 7 2 4 13 7 10 8 7 6 9 6 7 10 4 7 3 1 2 4 5 3 7 3 3 1 3 4 4 5 4 4 3 2 2 3 3
8 4 5 9 18 2 6 11 7 11 3 7 9 7 7 9 10 6 5 3 5 7 5 5 4 2 3 6 8 3 2 4 4 4 4 2 5 6 5 4 4 5 3 2 3
3 3 6 17 5 2 7 7 4 4 16 8 2 6 9 10 8 9 10 5 8 10 10 6 5 4 6 1 4 4 6 6 4 4 2 3 6 1 5 5 5 5 5 3 3
3 3 9 12 9 8 4 13 15 10 14 4 6 7 4 9 4 7 7 1 8 8 11 9 2 3 5 4 1 4 5 4 5 3 6 5 5 1 2 4 6 5 5 4 5
3 3 3 5 10 10 12 14 8 12 19 6 5 2 3 4 1 7 4 2 5 5 5 7 4 6 7 5 5 5 6 6 6 4 5 6 3 6 7 8 7 6 6 6 5
4 6 5 5 13 19 17 6 20 15 16 8 6 16 7 5 3 5 3 3 3 10 3 5 6 5 5 2 4 5 6 9 9 5 7 6 9 8 12 13 12 8 7 7 8
5 3 3 11 16 15 22 23 16 15 16 23 13 17 8 7 7 8 8 5 7 5 7 1 3 4 2 5 7 5 7 10 10 4 8 4 8 8 1 7 7 9 9 8 8
13 13 5 10 12 14 6 18 21 18 13 21 26 17 17 20 6 7 5 7 8 12 8 8 6 4 4 3 5 5 12 15 6 6 10 9 10 6 4 9 12 12 12 13 10

GFSSW_925_spd_135.txt.gz
Wind_Speed
13 11 11 12 13 14 13 14 12 9 11 12 11 10 10 9 7 3 4 4 5 4 5 9 7 5 5 3 3 2 3 1 3 5 2 1 1 1 1 2 3 1 1 5 6
16 16 14 13 13 15 17 16 12 10 10 11 11 9 9 10 5 7 4 7 7 4 5 8 3 2 3 2 2 3 2 5 4 4 3 1 3 2 1 3 2 4 4 11 3
14 16 16 15 14 14 16 17 15 12 12 11 8 8 8 7 2 6 11 10 8 5 4 7 6 2 3 2 1 3 3 3 3 7 2 2 3 3 2 1 2 7 10 7 7
13 14 16 17 18 17 17 17 16 17 15 10 6 5 6 2 4 5 14 12 8 4 6 7 3 3 3 2 2 1 5 4 3 2 3 3 2 2 1 3 2 2 2 3 6
14 14 16 17 18 19 19 20 18 16 13 8 5 3 2 2 7 9 15 11 7 5 4 3 3 3 4 3 4 3 2 3 5 5 5 3 6 4 5 4 2 3 4 6 7
16 16 17 18 20 20 20 21 22 16 10 7 4 5 3 4 2 12 16 12 7 5 4 4 5 4 4 3 4 3 3 5 5 2 3 5 3 6 4 4 4 5 6 6 7
18 18 19 20 20 22 22 21 23 15 7 3 5 6 1 9 2 14 14 9 7 4 4 3 6 3 4 3 1 0 3 4 3 1 2 4 2 5 3 5 4 3 4 7 8
19 19 21 21 23 22 23 23 21 9 5 2 10 4 5 4 7 15 12 8 6 5 5 7 5 3 1 3 4 2 3 2 1 3 1 3 6 3 2 4 1 3 6 9 9
19 20 20 22 22 24 24 25 11 2 2 2 3 5 6 2 6 16 14 8 7 5 5 8 4 2 2 3 2 4 1 2 6 2 1 3 4 1 2 3 3 5 9 12 15
19 20 23 22 23 24 25 17 2 1 2 1 1 3 3 4 5 13 12 12 4 5 3 3 3 2 2 2 3 3 2 2 4 2 1 3 10 6 6 5 2 7 11 13 13
17 19 20 25 22 26 23 5 4 0 2 7 6 3 3 4 8 7 11 8 4 3 4 1 2 6 9 5 2 3 2 4 4 4 2 4 7 10 6 3 3 9 13 14 15
18 19 19 22 23 21 9 3 3 5 7 11 12 7 7 6 4 4 15 6 5 5 3 2 6 8 4 5 4 2 2 4 4 3 3 4 12 3 4 2 4 8 14 16 19
16 18 19 19 22 6 7 3 9 2 4 7 6 6 6 10 7 9 11 6 4 6 6 6 4 4 5 4 5 3 4 4 5 2 1 5 4 2 2 3 4 9 9 13 15
18 20 20 18 7 13 3 11 8 1 3 7 5 6 6 5 4 7 14 7 3 9 6 5 3 6 5 4 5 2 4 3 2 1 3 3 4 2 2 1 5 9 9 12 14
20 19 19 14 10 5 7 13 4 2 6 3 4 4 1 9 5 2 5 5 9 7 6 6 4 4 3 5 7 5 2 2 1 2 1 1 2 3 1 3 5 9 11 12 13
21 21 18 12 10 9 9 11 1 3 9 3 5 5 7 1 3 4 5 5 4 4 1 4 2 4 6 3 3 5 4 4 3 2 2 2 2 3 3 2 3 6 9 9 11
22 22 20 11 4 10 17 5 1 6 3 5 5 5 7 6 2 2 7 6 7 4 6 1 3 2 3 4 2 3 3 1 0 1 3 2 0 6 5 5 4 4 6 9 10
23 24 18 14 14 11 4 2 7 6 14 1 4 3 8 6 5 4 6 8 4 5 3 6 4 8 5 5 6 4 5 4 4 2 2 1 5 2 4 6 4 2 4 5 8
23 20 16 12 9 11 3 8 9 7 6 9 2 4 4 4 5 5 7 6 9 9 7 5 4 2 2 3 4 4 4 3 6 1 1 2 5 3 6 5 4 5 4 4 6
14 11 10 12 12 7 2 12 7 3 5 2 18 8 12 8 7 8 9 6 7 11 5 5 3 1 3 4 5 3 8 3 1 3 3 3 4 3 6 8 8 8 6 1 4
6 3 8 10 14 3 9 9 8 15 9 4 6 6 7 8 9 7 9 3 5 7 5 5 2 2 4 5 8 2 2 4 3 2 3 2 4 6 7 9 12 9 8 5 2
3 3 6 5 3 3 9 5 7 14 8 12 5 6 8 9 8 9 13 8 9 12 10 6 4 4 5 2 4 3 5 6 3 5 1 0 5 3 6 8 10 10 8 5 3
2 3 9 3 3 7 9 13 13 17 11 2 11 7 3 8 4 8 8 2 11 11 14 9 3 3 3 3 0 4 5 4 5 3 6 5 4 2 4 6 8 12 10 7 4
2 3 2 3 5 9 14 13 16 13 19 16 6 12 4 3 2 4 6 2 7 7 10 10 4 6 8 5 5 6 7 7 5 4 6 6 2 5 9 10 10 11 12 10 8
4 5 4 3 6 12 13 12 17 10 12 8 10 22 15 4 2 4 1 3 1 7 5 6 7 6 4 2 4 5 8 13 12 7 7 5 11 9 12 15 16 15 13 13 11
3 3 2 6 10 14 13 11 16 22 18 16 17 18 22 13 3 2 3 4 6 5 7 2 5 5 4 5 4 3 5 14 13 3 9 3 8 7 1 7 12 15 16 16 14
10 12 4 8 5 6 11 16 17 12 18 17 16 15 18 23 10 10 8 15 5 6 12 9 7 5 4 4 5 5 15 13 8 6 12 10 11 6 5 9 14 16 17 18 17